Location: Courçay
(47.2523°N, 0.8761°E)
Time: 20:10:55
(UTC+00:00)

Cosmos 1092 Rocket - Pass Details

Date: 18 November 2025
Orbit: 953 x 994 km, 82.9° (Epoch: 10 December)

Event Time Altitude Azimuth Distance (km) Brightness Sun altitude
Rises 18:08:09 0° 355° (N) 3,693 7.0 -18.5°
Reaches altitude 10° 18:10:49 10° 1° (N) 2,735 6.2 -19.0°
Maximum altitude 18:16:49 46° 74° (ENE) 1,286 4.2 -20.0°
Drops below altitude 10° 18:22:42 10° 147° (SSE) 2,691 6.1 -21.0°
Sets 18:25:17 0° 153° (SSE) 3,628 6.8 -21.4°
